Starlink 32173

operational
NORAD ID: 60586 Int'l Des: 2024-150 Owner: SPXS Country: US Constellation: starlink
LEOCIRCULAR

Starlink 32173について

説明を読み込み中...

リアルタイム位置

3D地球を読み込み中...

次回通過

高度履歴

Altitude vs Time

uPlot chart will show altitude changes over time

軌道要素

1 60586U 24150D 25352.30811063 -.00003533 00000-0 -10724-3 0 9999
2 60586 53.1615 324.8794 0001211 112.1750 247.9379 15.30190463 75585
Epoch: Dec 18, 2025 • Age: 23 hours

現在のステータス

高度 480.1 km
速度 7.63 km/s
衛星直下点 -17.87°S, 27.06°W
打ち上げ日 Aug 20, 2024
運用期間 1.3 years
タイプ internet

技術仕様

分類 Payload
質量 730.00 kg
乾燥質量 700.00 kg
総質量 730.00 kg
長さ 0.30 m
直径 4.10 m
スパン 29.00 m
形状 Box + pan
製造者 SPXS
バスタイプ Starlink V2M
フェーズステータス In Orbit
所有者/国 SPXS/US

大規模コンステレーション

Loading constellations...